星链-4788 (STARLINK-4788 )

导读

STARLINK-4788是美国SpaceX公司星链星座的一员,于2022年9月19日发射升空,属于第一代星链组网卫星。它运行在近地轨道,配备氪离子推进系统与相控阵通信天线,主要为全球用户提供低延迟高速卫星互联网接入服务,可支持偏远地区联网、应急通信等场景,退役后会在大气层中完全烧毁以减少空间碎片。

Basic Information
目录编号:
53863
目录名称:
STARLINK-4788
国际标识:
2022-114AX
轨道中心:
EARTH
卫星名称:
星链-4788
卫星全名:
星链-4788 (STARLINK-4788 )
卫星状态:
在轨 (已飞行1446 天)
发射日期:
2022-09-19 UTC
国别 :
美国 (US)
星等 :
--
Orbit Information
数据来源 国际轨道数据
星历时间: 2026-09-04T14:43:08+0800
13小时前
查看轨道信息
半长轴: 6848.866km
偏心率: 0.000119
轨道倾角: 53.159°
近地点辐角 91.183°
升交点赤经 194.078°
平近点角 268.931°
近地点: 469.913km
远地点: 471.545km
周期: 94.013分钟
每日圈数: 15.317037
Detailed Information
固有亮度:
5
最大亮度:
2.5
卫星平台:
Starlink v1.5
覆盖范围:
全球
运营商:
太空探索技术公司
运营商所在国:
美国
制造商(研发单位):
太空探索技术公司
制造商所在国:
美国
使用方式:
暂无
Satellite Introduction
星链(Starlink)计划是由太空探索技术公司(SpaceX)提出的一个巨型低轨卫星互联网星座项目,计划在2019年至2024年间在太空搭建由约1.2万颗卫星组成的“星链”网络,其中1584颗将部署在地球上空550千米处的近地轨道,并从2020年开始工作。该卫星仍在工作。
2D Orbit Map
3D Orbit Map
Orbit Altitude Analysis Chart
Orbit Inclination Analysis Chart
Orbit Comprehensive Analysis Chart
View Comprehensive Chart
Conjunction Data List
Event ID Objects TCA Miss Dist (km) Collision Risk Probability Collision Risk Index (CRI) Action
CDM_260905-002505-386306-666822
SARI-1 (66668)
2026-09-05T
00:25:41+0000
2.576 km
极远距离
1.589764E-6 低风险 0.39